TimeEDT,TemperatureF,Dew PointF,Humidity,Sea Level PressureIn,VisibilityMPH,Wind Direction,Wind SpeedMPH,Gust SpeedMPH,PrecipitationIn,Events,Conditions,WindDirDegrees,DateUTC
12:15 AM,44.6,41.9,90,30.16,10.0,Calm,Calm,-,N/A,,Clear,0,2013-10-08 04:15:00
12:35 AM,46.2,43.5,90,30.16,10.0,Calm,Calm,-,N/A,,Clear,0,2013-10-08 04:35:00
12:55 AM,45.0,42.3,90,30.16,10.0,South,3.5,-,N/A,,Clear,180,2013-10-08 04:55:00
1:15 AM,46.4,43.7,90,30.17,10.0,Calm,Calm,-,N/A,,Clear,0,2013-10-08 05:15:00
1:35 AM,45.9,43.2,90,30.16,10.0,Calm,Calm,-,0.01,,Clear,0,2013-10-08 05:35:00
1:55 AM,46.6,43.7,90,30.17,10.0,Calm,Calm,-,0.01,,Clear,0,2013-10-08 05:55:00
2:15 AM,46.2,43.3,90,30.17,10.0,Calm,Calm,-,N/A,,Clear,0,2013-10-08 06:15:00
2:35 AM,43.7,41.0,90,30.18,10.0,Calm,Calm,-,N/A,,Clear,0,2013-10-08 06:35:00
2:55 AM,44.1,41.2,90,30.18,10.0,Calm,Calm,-,N/A,,Clear,0,2013-10-08 06:55:00
3:15 AM,43.3,40.5,90,30.18,10.0,Calm,Calm,-,N/A,,Clear,0,2013-10-08 07:15:00
3:35 AM,43.2,40.5,90,30.18,10.0,Calm,Calm,-,N/A,,Clear,0,2013-10-08 07:35:00
3:55 AM,43.0,40.3,90,30.18,10.0,Calm,Calm,-,N/A,,Clear,0,2013-10-08 07:55:00
4:15 AM,43.3,40.6,90,30.18,10.0,Calm,Calm,-,N/A,,Clear,0,2013-10-08 08:15:00
4:35 AM,43.0,40.3,90,30.18,7.0,Calm,Calm,-,N/A,,Clear,0,2013-10-08 08:35:00
4:55 AM,42.6,39.9,90,30.19,7.0,Calm,Calm,-,N/A,,Clear,0,2013-10-08 08:55:00
5:15 AM,42.8,40.3,91,30.19,7.0,Calm,Calm,-,N/A,,Clear,0,2013-10-08 09:15:00
5:35 AM,43.7,41.0,90,30.19,5.0,Calm,Calm,-,N/A,,Clear,0,2013-10-08 09:35:00
5:55 AM,42.3,39.6,90,30.20,5.0,Calm,Calm,-,N/A,,Clear,0,2013-10-08 09:55:00
6:15 AM,43.7,41.0,90,30.21,5.0,Calm,Calm,-,N/A,,Clear,0,2013-10-08 10:15:00
6:35 AM,42.4,39.7,90,30.21,5.0,Calm,Calm,-,N/A,,Clear,0,2013-10-08 10:35:00
6:55 AM,43.2,40.6,91,30.22,5.0,Calm,Calm,-,N/A,,Clear,0,2013-10-08 10:55:00
7:15 AM,42.3,39.7,91,30.22,4.0,Calm,Calm,-,0.01,,Clear,0,2013-10-08 11:15:00
7:35 AM,41.5,39.2,91,30.23,4.0,Calm,Calm,-,0.01,,Clear,0,2013-10-08 11:35:00
7:55 AM,41.9,39.4,91,30.23,2.5,Calm,Calm,-,0.01,,Clear,0,2013-10-08 11:55:00
8:15 AM,42.8,40.3,91,30.24,2.0,Calm,Calm,-,N/A,,Clear,0,2013-10-08 12:15:00
8:35 AM,45.5,43.0,91,30.24,2.5,Calm,Calm,-,N/A,,Clear,0,2013-10-08 12:35:00
8:55 AM,48.2,45.5,90,30.25,5.0,Calm,Calm,-,N/A,,Clear,0,2013-10-08 12:55:00
9:15 AM,50.0,47.5,91,30.26,7.0,Calm,Calm,-,N/A,,Clear,0,2013-10-08 13:15:00
9:35 AM,52.2,49.6,91,30.26,10.0,South,3.5,-,N/A,,Clear,170,2013-10-08 13:35:00
9:55 AM,54.1,50.7,88,30.26,10.0,SSE,3.5,-,N/A,,Clear,160,2013-10-08 13:55:00
10:15 AM,56.8,50.0,78,30.26,10.0,Calm,Calm,-,N/A,,Clear,0,2013-10-08 14:15:00
10:35 AM,59.0,50.2,73,30.26,10.0,Calm,Calm,-,N/A,,Clear,0,2013-10-08 14:35:00
10:55 AM,60.8,50.0,68,30.27,10.0,SE,3.5,-,N/A,,Clear,140,2013-10-08 14:55:00
11:15 AM,62.1,48.0,60,30.27,10.0,SSE,3.5,-,0.01,,Clear,150,2013-10-08 15:15:00
11:35 AM,63.7,46.9,54,30.27,10.0,SSE,5.8,-,0.01,,Clear,150,2013-10-08 15:35:00
11:55 AM,64.6,46.2,51,30.26,10.0,South,6.9,-,0.01,,Clear,180,2013-10-08 15:55:00
12:15 PM,65.3,45.7,49,30.26,10.0,SSE,4.6,-,N/A,,Clear,150,2013-10-08 16:15:00
12:35 PM,65.8,46.0,49,30.26,10.0,South,6.9,-,0.01,,Clear,180,2013-10-08 16:35:00
12:55 PM,66.7,45.9,47,30.26,10.0,South,5.8,-,0.01,,Clear,170,2013-10-08 16:55:00
1:15 PM,67.6,45.9,46,30.25,10.0,SSW,3.5,-,N/A,,Clear,200,2013-10-08 17:15:00
1:35 PM,68.2,44.8,43,30.25,10.0,SE,4.6,-,N/A,,Clear,140,2013-10-08 17:35:00
1:55 PM,68.9,44.8,42,30.24,10.0,South,8.1,-,N/A,,Clear,190,2013-10-08 17:55:00
2:15 PM,69.1,43.9,40,30.23,10.0,ESE,4.6,-,N/A,,Clear,110,2013-10-08 18:15:00
2:35 PM,69.6,44.1,40,30.23,10.0,SE,3.5,-,0.01,,Clear,140,2013-10-08 18:35:00
2:55 PM,70.0,44.4,40,30.22,10.0,East,4.6,-,0.01,,Clear,80,2013-10-08 18:55:00
3:15 PM,71.1,42.4,36,30.21,10.0,ESE,8.1,-,N/A,,Clear,110,2013-10-08 19:15:00
3:35 PM,71.4,42.3,35,30.21,10.0,East,5.8,-,N/A,,Clear,90,2013-10-08 19:35:00
3:55 PM,70.7,41.9,35,30.21,10.0,SE,6.9,-,N/A,,Clear,130,2013-10-08 19:55:00
4:15 PM,71.4,41.2,33,30.21,10.0,Calm,Calm,-,N/A,,Clear,0,2013-10-08 20:15:00
4:35 PM,70.9,41.7,35,30.21,10.0,SE,3.5,-,0.01,,Clear,140,2013-10-08 20:35:00
4:55 PM,71.2,42.4,35,30.20,10.0,East,3.5,-,0.01,,Clear,90,2013-10-08 20:55:00
5:15 PM,70.9,41.9,35,30.20,10.0,ESE,6.9,-,N/A,,Clear,120,2013-10-08 21:15:00
5:35 PM,71.1,42.6,36,30.20,10.0,SSE,6.9,-,N/A,,Clear,150,2013-10-08 21:35:00
5:55 PM,70.7,42.6,36,30.20,10.0,SE,5.8,-,N/A,,Clear,130,2013-10-08 21:55:00
6:15 PM,69.8,41.7,36,30.21,10.0,ESE,5.8,-,N/A,,Clear,120,2013-10-08 22:15:00
6:35 PM,68.9,42.3,38,30.21,10.0,ESE,4.6,-,N/A,,Clear,110,2013-10-08 22:35:00
6:55 PM,67.1,42.6,41,30.21,10.0,ESE,3.5,-,N/A,,Clear,110,2013-10-08 22:55:00
7:15 PM,63.1,44.8,51,30.21,10.0,Calm,Calm,-,N/A,,Clear,0,2013-10-08 23:15:00
7:35 PM,55.0,48.4,78,30.21,10.0,Calm,Calm,-,N/A,,Clear,0,2013-10-08 23:35:00
7:55 PM,53.2,47.5,81,30.21,10.0,Calm,Calm,-,N/A,,Clear,0,2013-10-08 23:55:00
8:15 PM,51.8,47.5,85,30.22,10.0,Calm,Calm,-,N/A,,Clear,0,2013-10-09 00:15:00
8:35 PM,50.9,46.9,86,30.22,10.0,Calm,Calm,-,N/A,,Clear,0,2013-10-09 00:35:00
8:55 PM,49.6,45.7,86,30.22,10.0,Calm,Calm,-,N/A,,Clear,0,2013-10-09 00:55:00
9:15 PM,48.4,44.8,87,30.22,10.0,Calm,Calm,-,0.01,,Clear,0,2013-10-09 01:15:00
9:35 PM,47.8,44.4,88,30.23,10.0,Calm,Calm,-,0.01,,Clear,0,2013-10-09 01:35:00
9:55 PM,46.9,43.7,88,30.23,10.0,Calm,Calm,-,0.01,,Clear,0,2013-10-09 01:55:00
10:15 PM,46.0,43.0,89,30.23,10.0,Calm,Calm,-,N/A,,Clear,0,2013-10-09 02:15:00
10:35 PM,45.7,42.8,90,30.23,10.0,Calm,Calm,-,N/A,,Clear,0,2013-10-09 02:35:00
10:55 PM,45.3,42.4,90,30.23,10.0,Calm,Calm,-,N/A,,Clear,0,2013-10-09 02:55:00
11:15 PM,44.6,41.5,89,30.23,5.0,ESE,3.5,-,N/A,,Clear,110,2013-10-09 03:15:00
11:35 PM,44.4,41.5,90,30.22,10.0,ESE,3.5,-,N/A,,Clear,110,2013-10-09 03:35:00
11:55 PM,44.1,41.2,90,30.23,10.0,Calm,Calm,-,N/A,,Clear,0,2013-10-09 03:55:00